7 * 24
多渠道服务支持
STARLINK-32251是美国SpaceX星链星座的一员,于2024年8月31日发射。星链项目旨在构建全球卫星互联网星座,为偏远地区、网络欠发达区域以及应急场景提供高速宽带接入服务。该卫星入轨后,进一步扩大了星链星座的覆盖范围与服务容量,增强了星座整体通信能力,推动全球卫星互联网服务的普及与完善。
美国
(US)
| 数据来源 | 国际轨道数据 |
| 星历时间: | 2026-09-11T20:31:58+0800 15小时前 查看轨道信息 |
| 半长轴: | 6840.872km |
| 偏心率: | 0.0001318 |
| 轨道倾角: | 53.163° |
| 近地点辐角 | 101.027° |
| 升交点赤经 | 343.595° |
| 平近点角 | 259.088° |
| 近地点: | 461.833km |
| 远地点: | 463.637km |
| 周期: | 93.848分钟 |
| 每日圈数: | 15.343895 |